Regional Weather Roundup
Issued by NWS Boston, MA

Current Version | Previous Version | Text Only | Print | Product List | Glossary Off
Versions: 1 2 3 4 5 6 7 8 9 10 11 12 13 14 15 16 17 18 19 20 21 22 23 24 25 26 27
000 ASUS41 KBOX 220410 RWRBOX REGIONAL WEATHER ROUNDUP NATIONAL WEATHER SERVICE TAUNTON MA 1200 AM EDT MON MAY 22 2017 NOTE: "FAIR" INDICATES FEW OR NO CLOUDS BELOW 12,000 FEET WITH NO SIGNIFICANT WEATHER AND/OR OBSTRUCTIONS TO VISIBILITY. MAZALL-220500- EASTERN MASSACHUSETTS CITY SKY/WX TMP DP RH WIND PRES REMARKS BOSTON CLOUDY 57 39 51 SW8 30.26F BEVERLY CLOUDY 58 41 53 SW8 30.24F LAWRENCE CLOUDY 59 38 45 S6 30.26F BEDFORD CLOUDY 54 35 48 S5 30.23F BLUE HILL N/A 53 37 54 S14 30.24F NORWOOD CLOUDY 55 41 59 S6 30.25F MARSHFIELD CLOUDY 54 45 71 SW6 30.26F PLYMOUTH CLOUDY 51 41 68 SW5 30.27F TAUNTON PTCLDY 51 46 83 SE5 30.26F NEW BEDFORD CLOUDY 50 45 83 SE5 30.26F $$ MAZALL-220500- CAPE COD AND THE ISLANDS CITY SKY/WX TMP DP RH WIND PRES REMARKS FALMOUTH N/A N/A N/A N/A MISG N/A HYANNIS MOCLDY 54 40 59 S5 30.26F CHATHAM PTCLDY 53 41 63 SW3 30.28F PROVINCETOWN CLOUDY 53 42 66 SW9 30.27F NANTUCKET PTCLDY 47 35 63 S7 30.28F MARTHAS VNYRD PTCLDY 47 40 76 S5 30.28F $$ MAZALL-220500- CENTRAL AND WESTERN MASSACHUSETTS CITY SKY/WX TMP DP RH WIND PRES REMARKS WORCESTER NOT AVBL FITCHBURG CLOUDY 59 39 47 CALM 30.24F ORANGE CLOUDY 57 35 43 S10 30.24S SPRINGFIELD CLOUDY 57 36 45 S8 30.23F WESTFIELD CLOUDY 57 38 48 S6 30.24S NORTH ADAMS CLOUDY 55 42 61 E7 30.20F PITTSFIELD CLOUDY 53 36 52 SE7 30.20F $$ RIZALL-220500- RHODE ISLAND CITY SKY/WX TMP DP RH WIND PRES REMARKS PROVIDENCE MOCLDY 53 41 63 SW7 30.28F NEWPORT MOCLDY 52 50 93 S5 30.27F BLOCK ISLAND PTCLDY 52 48 86 S5 30.28F SMITHFIELD PTCLDY 50 37 61 VRB3 30.26F WESTERLY PTCLDY 53 46 77 CALM 30.29S $$ CTZALL-220500- CONNECTICUT CITY SKY/WX TMP DP RH WIND PRES REMARKS BRADLEY INTL CLOUDY 57 36 45 S8 30.25F HARTFORD CLOUDY 56 39 53 S7 30.25F BRIDGEPORT CLOUDY 58 41 53 S6 30.26F DANBURY CLOUDY 55 36 48 S6 30.26F GROTON CLOUDY 54 44 69 S5 30.27F NEW HAVEN CLOUDY 56 41 57 S5 30.27F CHESTER FAIR 54 39 58 S6 30.26F MERIDEN MOCLDY 55 38 52 S7 30.26F WILLIMANTIC CLOUDY 57 38 48 S3 30.27F OXFORD N/A 54 32 43 S6 30.27S $$ MEZ002-015-021-024-NHZ003-005-008-011-012-014-VTZ005-008-220500- NORTHERN NEW ENGLAND CITY SKY/WX TMP DP RH WIND PRES REMARKS PORTLAND ME CLOUDY 56 33 42 SW6 30.23F BANGOR ME CLOUDY 54 40 59 S3 30.22F CONCORD NH LGT RAIN 55 40 56 SE5 30.22F MANCHESTER NH CLOUDY 58 34 40 SE6 30.21F NASHUA NH CLOUDY 58 38 47 SE5 30.24F PORTSMOUTH NH CLOUDY 56 38 51 SW5 30.23S JAFFREY NH CLOUDY 58 37 45 SW7 30.25S KEENE NH LGT RAIN 59 41 51 S7 30.24R BURLINGTON VT LGT RAIN 57 52 83 SE3 30.13F MT. WASHINGTON CLOUDY 37 30 75 S25 N/A WCI 26 $$ NYZ052-076-220500- EASTERN NEW YORK CITY SKY/WX TMP DP RH WIND PRES REMARKS ALBANY LGT RAIN 60 35 39 S15G23 30.16F NEW YORK CITY CLOUDY 60 43 53 S12 30.25F $$ ANZALL-220500- MARINE OBSERVATIONS STATION/POSITION TIME TEMP WIND PRES VSBY WAVE AIR SEA DIR/SP/G HT/PER (UTC) (F) (DEG/KT/KT) (MB) (MI) (FT/S) BOSTON BUOY 0250 55 54 180/ 12/ 12 1024.0 1 BUZZARDS BAY 0300 54 190/ 8/ 9 1026.2F NANTUCKET SOUND 0350 54 1025.2F 0 MASS BAY-STELLWA 0304 56 54 190/ 14/ 16 1023.7F 2/ 3 ISLE OF SHOALS 0300 56 190/ 17/ 18 1023.8F S OF BLOCK IS 0355 54 N/A 1/ 6 $$ ......................KEY......................... SKY/WX - SKY CONDITION/PRESENT WEATHER TMP - TEMPERATURE IN FAHRENHEIT DWPT - DEWPOINT IN FAHRENHEIT RH - RELATIVE HUMIDITY IN PERCENT WIND - DIRECTION AND SPEED IN MPH PRES - MEAN SEA LEVEL PRESSURE IN INCHES OF HG WCI - WIND CHILL INDEX VSB - VISIBILITY IN MILES HX - HEAT INDEX TC - TEMPERATURE IN CELSIUS VRB - VARIABLE WIND DIRECTION N/A - NOT AVAILABLE

USA.gov is the U.S. government's official web portal to all federal, state and local government web resources and services.